2024/01/13 00:00:00, 8.6, 1.2
2024/01/13 00:10:00, 8.7, 1.2
2024/01/13 00:20:00, 8.7, 1.2
2024/01/13 00:30:00, 8.7, 1.2
2024/01/13 00:40:00, 8.6, 1.0
2024/01/13 00:50:00, 8.6, 0.9
2024/01/13 01:00:00, 8.6, 0.9
2024/01/13 01:10:00, 8.7, 0.8
2024/01/13 01:20:00, 8.7, 0.1
2024/01/13 01:30:00, 8.7, 0.1
2024/01/13 01:40:00, 8.7, 0.3
2024/01/13 01:50:00, 8.6, 0.4
2024/01/13 02:00:00, 8.6, 0.5
2024/01/13 02:10:00, 8.6, 0.6
2024/01/13 02:20:00, 8.6, 0.5
2024/01/13 02:30:00, 8.6, 0.4
2024/01/13 02:40:00, 8.6, 0.6
2024/01/13 02:50:00, 8.6, 0.6
2024/01/13 03:00:00, 8.6, 0.6
2024/01/13 03:10:00, 8.6, 1.0
2024/01/13 03:20:00, 8.6, 0.7
2024/01/13 03:30:00, 8.6, 0.7
2024/01/13 03:40:00, 8.6, 0.9
2024/01/13 03:50:00, 8.6, 0.9
2024/01/13 04:00:00, 8.6, 0.8
2024/01/13 04:10:00, 8.6, 0.9
2024/01/13 04:20:00, 8.6, 1.2
2024/01/13 04:30:00, 8.6, 1.1
2024/01/13 04:40:00, 8.6, 1.2
2024/01/13 04:50:00, 8.9, 0.9
2024/01/13 05:00:00, 9.6, 0.5
2024/01/13 05:10:00,10.0, 0.2
2024/01/13 05:20:00,10.4, 0.1
2024/01/13 05:30:00,10.9,-0.2
2024/01/13 05:40:00,11.6, 0.2
2024/01/13 05:50:00,12.5,-0.1
2024/01/13 06:00:00,13.4, 0.0
2024/01/13 06:10:00,13.9, 0.1
2024/01/13 06:20:00,14.4, 0.0
2024/01/13 06:30:00,14.5,-0.1
2024/01/13 06:40:00,15.2, 0.1
2024/01/13 06:50:00,15.8, 0.1
2024/01/13 07:00:00,16.0,-0.2
2024/01/13 07:10:00,16.6, 0.0
2024/01/13 07:20:00,16.8,-0.1
2024/01/13 07:30:00,16.9,-0.2
2024/01/13 07:40:00,17.0,-0.3
2024/01/13 07:50:00,17.1,-0.2
2024/01/13 08:00:00,17.3, 0.2
2024/01/13 08:10:00,17.4, 0.1
2024/01/13 08:20:00,17.4, 0.6
2024/01/13 08:30:00,17.7, 0.3
2024/01/13 08:40:00,18.5,-0.1
2024/01/13 08:50:00,19.1, 0.0
2024/01/13 09:00:00,19.5,-0.2
2024/01/13 09:10:00,19.5, 0.1
2024/01/13 09:20:00,19.7, 0.2
2024/01/13 09:30:00,19.7, 0.1
2024/01/13 09:40:00,19.7, 0.5
2024/01/13 09:50:00,19.6,-0.1
2024/01/13 10:00:00,19.8, 0.3
2024/01/13 10:10:00,20.4, 0.3
2024/01/13 10:20:00,20.8, 0.2
2024/01/13 10:30:00,21.3, 0.2
2024/01/13 10:40:00,22.3, 0.4
2024/01/13 10:50:00,22.9, 0.3
2024/01/13 11:00:00,23.1, 0.2
2024/01/13 11:10:00,23.5, 0.3
2024/01/13 11:20:00,24.2, 0.0
2024/01/13 11:30:00,24.5, 0.4
2024/01/13 11:40:00,24.6, 0.4
2024/01/13 11:50:00,24.7, 0.3
2024/01/13 12:00:00,25.3, 0.3
2024/01/13 12:10:00,25.7, 0.0
2024/01/13 12:20:00,25.8, 0.0
2024/01/13 12:30:00,25.9, 1.0
2024/01/13 12:40:00,26.1,-0.2
2024/01/13 12:50:00,26.7,-0.2
2024/01/13 13:00:00,26.6,-0.4
2024/01/13 13:10:00,27.1, 0.9
2024/01/13 13:20:00,26.9, 1.1
2024/01/13 13:30:00,26.9, 0.6
2024/01/13 13:40:00,27.1, 0.1
2024/01/13 13:50:00,27.8,-0.2
2024/01/13 14:00:00,27.9,-0.6
2024/01/13 14:10:00,28.2,-0.6
2024/01/13 14:20:00,28.5,-0.9
2024/01/13 14:30:00,28.7,-1.0
2024/01/13 14:40:00,28.9,-1.2
2024/01/13 14:50:00,29.2,-1.3
2024/01/13 15:00:00,29.4,-1.6
2024/01/13 15:10:00,29.5,-1.6
2024/01/13 15:20:00,29.8,-1.6
2024/01/13 15:30:00,29.9,-1.7
2024/01/13 15:40:00,30.0,-2.0
2024/01/13 15:50:00,30.5,-2.1
2024/01/13 16:00:00,30.8,-1.9
2024/01/13 16:10:00,30.9,-2.1
2024/01/13 16:20:00,31.3,-2.5
2024/01/13 16:30:00,31.6,-2.3
2024/01/13 16:40:00,31.7,-2.6
2024/01/13 16:50:00,31.7,-2.7
2024/01/13 17:00:00,31.9,-2.5
2024/01/13 17:10:00,31.8,-2.7
2024/01/13 17:20:00,31.9,-2.8
2024/01/13 17:30:00,31.9,-2.9
2024/01/13 17:40:00,31.9,-3.1
2024/01/13 17:50:00,31.8,-2.8
2024/01/13 18:00:00,31.8,-3.1
2024/01/13 18:10:00,31.7,-2.9
2024/01/13 18:20:00,31.6,-3.2
2024/01/13 18:30:00,31.7,-3.2
2024/01/13 18:40:00,31.7,-3.2
2024/01/13 18:50:00,31.6,-3.7
2024/01/13 19:00:00,31.6,-3.3
2024/01/13 19:10:00,31.6,-3.7
2024/01/13 19:20:00,31.6,-3.4
2024/01/13 19:30:00,31.6,-3.5
2024/01/13 19:40:00,31.6,-3.4
2024/01/13 19:50:00,31.5,-3.5
2024/01/13 20:00:00,31.8,-3.5
2024/01/13 20:10:00,31.7,-3.5
2024/01/13 20:20:00,31.6,-3.2
2024/01/13 20:30:00,31.6,-3.2
2024/01/13 20:40:00,31.7,-3.4
2024/01/13 20:50:00,31.7,-3.3
2024/01/13 21:00:00,31.6,-3.6
2024/01/13 21:10:00,31.6,-3.5
2024/01/13 21:20:00,31.5,-3.3
2024/01/13 21:30:00,31.5,-3.3
2024/01/13 21:40:00,31.5,-3.6
2024/01/13 21:50:00,31.4,-3.3
2024/01/13 22:00:00,31.4,-3.5
2024/01/13 22:10:00,31.3,-3.4
2024/01/13 22:20:00,31.3,-3.5
2024/01/13 22:30:00,31.2,-3.7
2024/01/13 22:40:00,31.2,-3.6
2024/01/13 22:50:00,31.1,-3.5
2024/01/13 23:00:00,31.1,-3.6
2024/01/13 23:10:00,31.1,-3.3
2024/01/13 23:20:00,31.0,-3.5
2024/01/13 23:30:00,31.0,-3.6
2024/01/13 23:40:00,30.9,-3.3
2024/01/13 23:50:00,30.9,-3.6
